Hourly Data Report for April 03, 2016

All times are specified in Local Standard Time (LST). Add 1 hour to adjust for Daylight Saving Time where and when it is observed.

EMERSON AUTO
MANITOBA

49°00'00.000" N
97°14'15.000" W
242.00 m
5020881
71560
WEX

Download Data

Hourly Data (April 2016)
Hourly Data Report for April 3, 2016
Temp Definition
°C
Dew Point Temp Definition
°C
Rel Hum Definition
%
Wind Dir Definition
10's deg

Wind Spd Definition
km/h
Visibility Definition
km
Stn Press Definition
kPa
Hmdx Definition


Wind Chill Definition


Weather Definition


TIME
00:00 -5.1 -8.9 75 12 18   97.75   -11 LegendNANA
01:00 -5.2 -8.7 76 12 16   97.63   -11 LegendNANA
02:00 -4.8 -8.2 77 11 16   97.47   -11 LegendNANA
03:00 -4.6 -7.8 78 8 15   97.49   -10 LegendNANA
04:00 -5.2 -8.1 80 8 16   97.40   -11 LegendNANA
05:00 -5.7 -8.3 81 7 16   97.46   -12 LegendNANA
06:00 -5.9 -8.4 82 5 21   97.56   -13 LegendNANA
07:00 -5.4 -8.6 78 6 19   97.60   -12 LegendNANA
08:00 -4.0 -8.1 73 4 27   97.77   -11 LegendNANA
09:00 -3.7 -7.9 73 5 24   97.89   -11 LegendNANA
10:00 -3.6 -7.7 73 2 22   98.00   -10 LegendNANA
11:00 -2.2 -7.5 67 3 24   98.09   -9 LegendNANA
12:00 -1.2 -6.8 66 3 27   98.20   -8 LegendNANA
13:00 -3.0 -7.5 71 2 24   98.35   -10 LegendNANA
14:00 -2.5 -7.0 71 1 26   98.44   -9 LegendNANA
15:00 -1.6 -5.9 72 1 26   98.52   -8 LegendNANA
16:00 -2.0 -7.0 69 1 28   98.64   -9 LegendNANA
17:00 -2.1 -7.4 67 1 25   98.73   -9 LegendNANA
18:00 -2.9 -7.3 72 2 25   98.85   -10 LegendNANA
19:00 -3.5 -8.1 70 1 26   98.96   -11 LegendNANA
20:00 -4.4 -9.9 65 2 25   99.09   -12 LegendNANA
21:00 -4.8 -10.9 62 1 22   99.23   -12 LegendNANA
22:00 -5.4 -12.2 59 3 24   99.28   -13 LegendNANA
23:00 -6.3 -13.5 56 1 16   99.32   -12 LegendNANA

Notes on Data Quality.

Legend

  • E = Estimated
  • M = Missing
  • NA = Not Available
  • ‡ = Partner data that is not subject to review by the National Climate Archives
Date modified: